CAPE
0 0 0 19 16 8 0 4 6 18 29 1 1 0 0 0 0 0 0 0 0 0 0 0 0 0 0 0 0 0 0 0 0 0 0 0 0 0 0 0 0 0 0 0
0 0 0 4 22 19 0 6 19 30 18 0 0 0 0 0 0 0 0 0 0 0 0 0 0 0 0 0 0 0 0 0 0 0 0 0 0 0 0 0 0 0 0 0
0 0 0 0 32 4 14 8 3 29 30 0 0 0 0 0 0 0 0 0 0 0 0 0 0 0 0 0 0 0 0 0 0 0 0 0 0 0 0 0 0 0 0 0
2 0 0 0 18 5 5 4 0 0 1 1 0 1 0 0 0 0 0 0 0 0 0 0 0 0 0 0 0 0 0 0 0 0 0 0 0 0 0 0 0 0 0 0
5 0 0 0 15 0 3 0 1 0 0 0 0 0 0 0 0 2 0 0 0 0 0 0 0 0 0 0 0 0 0 0 0 0 0 0 0 0 0 0 0 0 0 0
8 2 0 0 17 25 3 5 0 4 0 0 0 0 0 0 26 7 0 0 0 0 1 2 0 0 0 0 0 0 0 0 0 0 0 0 0 0 0 0 0 0 0 0
10 9 0 0 16 1 0 1 3 0 0 11 0 0 0 0 6 0 0 2 10 16 14 0 0 0 0 0 0 0 0 0 0 0 0 0 0 0 0 0 1 0 14 3
9 14 1 6 0 15 0 0 5 5 0 3 9 0 0 0 0 2 0 9 0 17 0 0 0 0 0 0 0 0 0 0 0 0 0 0 0 0 0 1 0 1 20 0
10 11 0 6 0 16 0 0 0 9 0 0 4 0 0 0 0 0 1 9 3 0 0 0 0 0 0 0 1 0 0 0 0 1 1 0 0 0 0 0 0 0 0 0
17 1 0 2 7 19 6 0 0 2 1 0 2 0 0 0 9 5 15 6 7 0 0 0 0 0 0 0 0 0 0 0 0 0 0 0 0 0 51 0 0 0 0 0
24 0 0 0 16 15 3 0 0 7 0 3 5 1 3 3 8 2 5 12 3 8 1 0 0 0 0 0 0 0 0 0 0 0 0 0 0 11 4 0 0 0 0 0
22 1 0 0 2 38 6 4 0 1 7 7 0 0 0 0 0 3 9 2 0 1 0 0 0 0 0 8 1 17 3 0 0 0 0 0 1 0 0 0 0 0 0 0
12 1 1 8 5 31 3 5 2 7 2 0 0 0 0 0 0 6 12 15 2 0 0 0 11 9 0 0 0 2 7 10 0 0 0 1 0 1 0 1 0 0 0 0
1 7 20 0 5 24 0 8 17 15 5 0 0 0 0 0 0 0 0 1 0 5 2 4 0 0 0 0 0 0 1 1 0 0 0 3 16 16 0 0 0 0 0 0
6 12 14 14 0 7 15 10 18 9 12 0 0 0 0 0 0 0 0 0 0 0 5 3 0 6 6 0 0 0 0 0 0 0 0 2 7 11 0 0 0 0 0 0
15 9 5 10 1 9 9 1 0 9 3 0 0 0 0 0 0 0 0 0 0 0 0 0 0 0 9 0 0 0 0 0 0 0 11 10 1 0 0 0 0 0 0 0
7 3 15 0 3 17 0 0 0 0 6 0 0 0 0 0 1 4 12 19 8 6 15 10 6 9 13 2 0 0 0 0 0 0 1 0 0 0 0 1 0 0 0 0
27 28 16 12 7 0 0 0 6 5 0 0 0 0 0 2 10 12 5 8 6 1 1 1 0 3 6 2 0 0 0 0 0 0 0 0 0 0 0 0 0 0 0 0
13 8 10 2 0 2 5 4 0 0 0 0 1 0 0 0 0 0 1 3 0 0 0 0 0 0 0 0 0 2 0 0 0 0 0 0 0 0 0 0 0 0 0 0
1 0 0 0 2 3 1 0 1 0 0 1 1 1 0 0 1 0 0 0 0 0 0 1 0 2 0 5 0 0 0 0 0 0 0 0 0 0 0 0 0 0 0 0
0 0 0 3 18 4 0 0 0 0 1 1 0 0 0 0 0 0 0 0 0 0 0 2 0 0 0 0 0 0 0 0 0 0 0 0 0 0 0 0 0 0 0 0
0 0 0 0 0 1 0 0 0 0 0 0 0 0 0 0 0 0 0 0 0 1 1 0 0 0 0 0 0 0 0 0 0 0 0 0 0 0 0 0 0 0 0 0
0 0 0 0 0 0 0 0 0 0 0 0 1 3 0 1 1 0 0 0 0 0 0 0 0 1 0 0 0 0 0 0 0 0 0 0 0 0 0 0 0 0 0 0
0 0 0 0 0 0 0 0 0 0 17 0 0 0 0 1 0 0 0 0 0 0 0 0 1 1 0 0 0 0 0 0 0 0 0 0 0 0 0 0 0 0 0 0
0 0 0 0 0 0 0 0 0 0 0 0 0 0 0 0 0 0 0 0 0 0 0 1 2 0 1 0 1 1 0 0 0 0 0 0 0 0 0 0 0 0 0 0
0 0 0 0 0 0 0 0 0 2 0 1 0 0 0 0 0 0 0 0 0 0 1 1 0 1 1 1 1 0 0 0 0 0 0 0 0 0 0 0 0 0 0 0
0 0 0 0 1 0 0 1 0 1 0 0 0 0 0 0 4 5 0 0 1 0 1 1 0 1 1 1 0 2 1 0 0 0 0 0 0 0 0 0 0 0 0 0
CIN
0 0 -0 -0 -3 -5 0 -1 -0 -16 -9 -0 -1 0 0 0 0 0 0 0 0 0 0 0 0 0 0 0 0 0 0 0 0 0 0 0 0 0 0 0 0 0 -0 0
0 0 0 -1 -5 -1 -0 0 -2 -5 -6 0 0 0 0 0 0 0 0 0 0 0 0 0 0 0 0 0 0 0 0 0 0 0 0 0 0 0 0 0 0 0 0 0
0 0 0 -0 -4 -10 -1 -0 -4 -0 -1 0 0 0 0 0 0 0 0 0 0 0 0 0 0 0 0 0 0 0 0 0 0 0 0 0 0 0 0 0 0 0 0 0
-1 0 0 0 -4 -17 -1 0 0 0 -0 -2 0 -5 0 0 0 0 0 0 0 0 0 0 0 0 0 0 0 0 0 0 0 0 0 0 0 0 0 0 0 0 0 0
-2 0 0 0 -2 -0 0 0 0 -0 0 0 0 0 0 0 -12 -17 0 0 0 -0 0 0 0 0 0 -0 0 0 0 0 0 0 0 0 0 0 0 0 0 0 -0 0
-0 -0 0 0 -2 -0 0 -0 -1 -0 0 -1 0 0 0 0 -4 -7 0 0 0 0 -7 -12 0 0 0 0 0 0 0 0 -0 0 0 0 0 0 0 0 0 -1 0 0
0 -1 0 0 -3 0 0 -0 -0 -4 0 -5 0 0 -23 0 -26 0 0 -3 -6 -24 -53 -26 0 0 0 0 0 0 0 0 0 0 0 0 0 0 0 0 -7 0 -37 -19
-0 -3 -4 -12 -0 -6 0 0 -0 0 0 -2 -4 0 0 0 -7 -33 0 -3 0 -56 0 0 0 0 0 0 0 0 0 0 0 0 0 0 0 0 0 -13 0 -72 -28 0
-3 -3 0 -18 0 -2 0 0 0 -3 0 0 -4 0 0 0 -0 0 -12 -22 -51 -14 0 0 0 0 0 0 -0 0 0 0 -0 -1 -2 0 0 0 -4 0 0 0 0 0
-4 -5 0 -15 -0 -0 -0 -1 0 -0 -0 0 -13 0 0 0 -7 -25 -24 -37 -16 0 0 0 0 0 0 0 0 0 -3 0 0 0 0 0 0 0 -23 0 0 0 0 0
-2 -0 0 0 0 -1 -0 -0 -2 -0 -2 -19 -18 -3 -0 -4 -15 -14 -10 -13 -8 -18 -4 0 0 0 0 0 0 0 -9 -11 0 0 -0 -0 0 -46 -17 0 0 0 0 0
-1 -0 0 0 -0 0 0 -0 -0 -3 -0 -16 0 0 0 0 -4 -16 -19 -9 0 0 0 0 0 0 -1 -5 -1 -13 -17 0 0 0 0 0 -6 -2 0 0 0 0 0 0
0 0 -0 0 -1 0 0 -0 -5 -0 -0 0 0 0 0 0 0 -111 -47 -33 -13 -1 0 0 -0 -0 0 0 0 -19 -11 -19 -2 -14 0 -20 0 -4 0 -37 0 0 0 0
-0 -1 0 -2 -1 -0 -1 -0 -1 -2 -10 0 0 0 0 0 0 0 0 -17 0 -9 -7 -2 -0 0 -1 0 -0 0 -10 -3 0 0 0 -3 -14 -26 0 0 0 0 0 0
0 0 -0 -0 0 -0 0 -0 -4 -9 -11 0 0 0 0 0 0 0 0 0 0 0 -0 -3 -0 -1 -1 0 0 0 0 0 -2 0 -6 -8 -33 -31 0 0 0 0 0 0
0 0 0 0 -0 -1 0 0 -0 -2 -7 0 0 0 0 0 0 0 0 0 0 0 -2 -0 0 -0 -5 0 0 0 0 0 -1 0 -23 -25 -4 0 0 0 0 0 0 0
0 0 -1 -2 -3 -0 -2 0 0 0 -3 0 0 0 0 -1 -1 -3 -2 -3 -5 -4 -1 -2 -6 -0 -2 -1 0 0 0 0 0 -3 -22 -4 0 0 0 -16 0 0 0 0
-0 -0 0 -1 -3 -0 -1 0 -11 -5 0 0 0 0 0 -10 -3 -1 -10 -4 -8 -3 -4 0 0 -2 -0 -0 0 0 0 -1 0 0 0 0 0 0 0 0 0 0 0 0
-0 -2 -0 -1 -0 0 0 -2 0 -14 0 0 -1 0 -1 -0 0 -4 -5 -7 -1 -0 0 0 -1 -0 0 0 0 -8 0 0 0 0 0 0 0 0 0 0 0 0 0 0
-2 0 0 0 -0 -4 -3 0 -1 -0 0 0 0 -1 0 -0 0 -2 0 0 -8 0 0 -1 -1 -1 0 -10 0 0 0 0 0 0 0 0 0 0 0 0 0 0 0 0
0 -0 0 -0 -1 -4 0 0 0 0 -1 0 0 0 0 0 0 0 0 0 0 -0 0 -0 0 -2 0 0 0 0 0 0 0 0 0 0 0 0 0 0 0 0 0 0
0 -0 0 -1 0 0 0 0 0 -1 0 0 0 0 0 -0 0 -12 0 0 0 -10 0 0 0 0 0 0 0 0 0 0 0 0 0 0 0 0 0 0 0 0 0 0
0 0 0 0 0 0 0 0 -1 0 0 -40 -0 -3 0 -10 0 0 0 0 0 0 -0 0 0 0 0 0 0 0 0 0 0 0 0 0 0 0 0 0 0 0 0 0
0 0 0 0 0 0 0 0 0 0 -9 0 0 0 0 0 0 0 0 0 0 -0 0 0 0 0 0 0 0 0 0 0 0 0 0 0 0 0 0 0 0 0 0 0
0 0 0 0 0 0 -0 0 0 0 -0 -0 0 0 0 0 0 0 0 0 0 0 0 0 0 0 0 0 0 0 0 0 0 0 0 0 0 0 0 0 0 0 0 0
0 0 0 0 0 0 0 0 0 -0 0 0 0 0 0 0 0 0 0 0 0 0 0 0 0 0 0 0 0 0 0 0 -0 0 0 0 0 0 0 0 0 0 0 0
0 -1 0 0 -1 0 0 0 0 0 0 0 0 0 0 0 -0 -2 -0 0 0 0 0 0 0 0 0 0 0 0 0 0 -0 0 0 0 0 0 0 0 0 0 0 0
Wind_Speed
24 26 27 20 16 13 14 20 28 14 10 23 27 34 28 28 27 22 23 23 25 27 24 22 22 22 19 17 18 21 19 22 27 26 28 29 28 28 26 30 35 32 33 36
29 29 31 29 19 17 18 22 22 14 16 31 32 29 30 30 28 26 23 23 19 20 24 26 24 25 25 22 21 21 21 23 30 30 26 23 24 25 28 31 31 34 36 37
30 33 32 32 20 17 22 23 20 18 21 26 26 28 31 28 27 28 27 25 24 27 28 26 25 28 26 22 20 19 20 23 25 31 27 31 30 33 31 31 35 36 39 39
32 33 33 33 26 24 18 27 23 18 21 24 27 30 26 29 28 25 24 29 29 29 30 31 34 32 32 27 18 20 22 30 29 31 34 35 36 36 38 38 34 37 38 34
32 33 34 33 31 23 27 25 23 19 25 21 23 25 30 27 29 24 29 30 30 29 33 32 29 28 28 27 22 22 20 26 27 33 32 32 37 32 29 29 29 30 28 24
34 35 35 33 26 24 23 33 32 25 26 25 21 21 27 29 26 20 25 23 26 30 29 23 23 23 23 22 22 24 24 24 28 37 28 35 37 27 27 27 25 28 27 29
35 35 36 33 33 30 29 30 22 25 26 20 21 23 25 30 27 22 23 28 22 17 15 19 22 25 27 28 27 22 26 26 27 37 34 37 26 19 26 21 20 23 23 29
34 34 35 35 34 30 34 29 25 22 30 25 22 22 23 27 31 30 29 21 21 14 20 24 28 29 29 29 20 18 16 19 24 26 27 29 30 36 27 21 27 28 18 19
32 34 36 36 36 35 32 42 30 25 25 28 27 23 20 21 21 21 20 18 13 13 19 22 25 26 23 24 19 8 8 10 13 18 26 28 23 20 15 19 30 19 20 22
32 35 38 37 37 36 32 37 32 27 25 27 29 24 17 14 13 21 18 15 22 16 19 22 24 26 21 24 22 19 11 9 12 15 21 22 23 27 18 17 18 24 23 25
36 37 40 40 42 40 35 44 28 25 22 23 16 18 12 15 13 16 14 14 19 17 18 19 19 21 20 20 20 19 14 14 14 14 17 22 19 14 19 20 29 23 23 18
38 40 43 43 46 40 33 37 30 32 25 21 16 13 8 10 11 15 17 14 12 11 14 15 18 19 20 21 20 16 13 10 15 8 11 16 24 25 16 14 21 16 16 15
40 44 47 46 48 45 35 35 24 28 21 25 23 20 18 17 19 17 16 18 14 14 17 18 18 19 20 17 19 23 20 12 15 27 26 28 34 23 17 19 19 17 13 10
43 45 45 50 48 43 30 32 25 20 16 23 21 19 20 23 23 23 21 21 20 19 18 21 20 22 23 23 25 28 24 25 22 26 30 13 20 14 10 9 10 13 8 7
44 47 47 48 49 33 37 32 16 17 16 19 23 25 27 24 21 26 24 24 27 25 25 25 29 27 28 29 30 33 27 30 31 34 33 35 23 27 22 8 10 11 7 6
42 46 52 50 28 23 31 32 35 21 16 19 23 20 22 24 19 21 24 25 25 25 26 28 28 25 27 30 32 29 30 30 29 31 30 27 24 28 24 21 11 10 6 5
37 30 29 26 26 27 24 19 18 11 13 17 21 22 20 19 15 23 23 21 23 23 25 27 27 26 26 30 38 32 38 38 36 20 22 25 20 23 20 18 13 9 7 4
31 25 26 22 16 13 15 16 11 6 12 16 20 21 20 18 18 18 19 20 21 22 25 24 26 26 28 35 36 35 33 28 25 22 21 21 25 24 23 20 12 9 6 4
27 25 20 17 20 18 16 2 5 9 11 17 21 23 23 18 20 19 20 20 26 22 26 26 20 25 26 28 29 28 22 24 25 26 22 24 23 23 22 16 11 9 5 3
25 18 17 13 16 10 2 12 12 14 17 18 23 21 25 17 17 19 20 19 24 25 26 17 23 27 29 26 21 23 25 25 26 27 24 23 21 20 18 15 11 8 5 4
20 14 11 7 7 9 11 12 14 14 18 19 20 23 23 17 18 19 19 21 19 21 17 14 18 18 16 18 21 24 25 25 26 21 19 19 21 15 14 14 11 7 6 6
9 4 3 7 9 11 12 16 15 15 21 19 18 21 18 18 20 18 20 20 17 20 9 14 17 15 17 19 22 25 24 24 21 21 20 21 21 19 13 12 12 9 7 6
5 7 8 9 11 12 21 20 17 17 18 15 13 14 15 17 20 19 19 18 18 16 17 19 17 16 19 22 23 22 22 22 22 22 22 21 22 21 19 14 12 8 7 6
10 10 8 10 12 21 21 21 18 20 21 12 9 12 15 18 16 18 19 18 17 17 19 17 16 18 21 22 22 20 22 22 21 21 20 20 19 18 17 15 12 10 9 8
10 10 12 14 18 18 18 20 23 24 22 10 13 15 17 18 18 18 18 18 19 18 18 15 15 18 20 21 21 20 20 20 20 20 19 18 17 16 15 15 13 11 9 9
12 14 16 18 21 24 22 23 26 23 22 17 17 16 16 18 17 18 19 17 18 16 14 13 16 18 20 20 19 18 18 19 19 19 18 17 16 15 14 14 14 12 11 10
18 18 18 21 20 19 20 22 22 20 19 18 17 15 15 13 18 16 17 17 13 11 13 14 17 18 19 18 17 17 17 18 19 19 18 17 16 15 14 14 14 13 13 13
Wind_Direction
288 286 283 272 267 259 263 280 275 268 228 259 260 261 270 272 275 288 286 289 288 284 289 291 295 286 296 314 307 301 314 310 299 297 300 301 304 305 308 306 306 304 305 303
283 281 277 270 252 254 268 276 271 262 248 260 260 267 266 268 272 279 283 279 286 292 289 284 292 293 293 309 304 302 303 304 301 304 307 306 303 306 308 311 311 305 305 308
280 277 275 273 240 239 258 269 267 267 255 265 263 265 265 262 268 272 277 280 283 280 282 288 287 289 294 295 297 300 303 297 297 295 303 310 306 301 305 307 303 306 302 308
277 277 272 267 241 239 244 258 275 268 267 258 262 265 272 264 263 267 276 275 274 276 278 279 279 281 281 288 294 296 298 292 296 297 299 300 298 298 300 301 303 302 306 306
275 275 271 267 250 222 247 255 274 269 277 269 255 262 263 264 265 265 269 271 272 272 275 276 280 280 282 285 293 291 293 296 299 298 302 303 299 300 304 303 303 303 302 297
271 269 268 263 246 226 257 252 258 279 275 267 260 246 266 264 272 284 271 276 272 272 280 282 285 291 293 295 296 295 297 300 302 297 309 308 302 307 307 308 306 306 306 312
267 264 263 260 253 226 253 249 267 265 270 264 260 268 260 262 267 275 272 276 277 290 297 296 293 290 291 290 290 292 294 297 300 298 308 301 312 320 314 311 309 315 314 314
264 260 260 256 251 228 246 248 253 265 267 266 264 265 267 268 266 270 271 287 288 291 291 289 288 288 292 291 280 277 276 293 301 302 303 305 310 303 309 320 319 320 328 325
260 257 257 254 249 237 242 235 249 266 274 264 266 270 270 272 267 265 267 276 306 310 289 284 283 285 294 297 311 312 269 281 292 313 311 313 328 339 337 329 306 336 328 329
256 256 252 251 244 239 237 237 241 251 269 265 262 264 271 269 277 267 275 275 272 284 281 280 282 285 298 295 300 304 301 283 282 299 314 316 313 311 331 325 330 318 325 329
251 252 247 245 237 235 228 223 234 253 266 268 291 288 270 275 271 268 284 279 277 279 276 283 290 294 299 301 301 300 307 308 306 309 316 321 326 345 322 312 316 313 333 348
246 245 242 239 230 230 221 229 240 246 259 267 287 296 323 307 289 273 272 283 297 289 286 285 293 295 301 305 308 315 316 310 314 315 328 324 308 306 343 331 324 339 349 359
241 243 236 229 223 223 217 224 239 250 261 270 277 278 284 287 278 277 276 281 285 291 284 288 294 296 297 312 307 300 312 324 314 300 298 301 275 318 335 319 325 337 353 10
238 233 226 216 215 216 211 219 239 256 270 268 283 285 281 274 270 269 273 271 274 280 282 282 287 286 292 291 292 292 297 295 308 303 300 262 326 333 346 338 341 346 9 27
221 216 213 210 208 203 210 217 248 262 274 281 277 281 273 274 273 264 266 267 265 271 274 277 276 281 288 288 287 277 292 288 277 272 292 289 315 313 316 340 343 351 14 32
212 211 200 200 193 197 203 230 241 264 284 284 278 296 281 269 273 267 263 265 268 269 274 277 277 286 289 281 278 284 287 284 302 305 309 313 313 304 295 306 334 342 355 22
190 173 166 180 179 197 217 241 260 230 285 289 287 284 283 278 270 263 265 271 271 273 274 276 280 287 287 279 259 281 277 279 275 320 327 312 312 311 315 317 322 336 347 21
166 140 155 163 170 191 226 250 257 250 277 287 282 280 278 278 269 272 276 277 280 281 281 284 282 285 278 269 265 273 276 298 310 319 326 319 309 308 309 310 320 323 336 3
142 134 138 175 205 217 228 21 312 309 300 282 278 271 268 278 271 275 281 285 278 288 275 274 281 274 275 279 277 283 304 312 315 322 328 320 315 310 307 310 311 312 326 347
126 159 191 211 217 108 263 285 302 300 296 292 276 273 261 276 276 273 281 284 273 275 272 278 273 275 278 282 293 302 311 317 321 320 321 319 312 311 307 309 311 316 324 338
184 203 224 201 112 264 295 297 298 304 295 283 278 264 259 274 269 269 278 279 280 275 282 273 283 286 288 298 302 312 321 325 324 331 329 319 306 316 315 309 312 318 321 318
200 142 205 247 284 303 305 286 297 299 278 278 281 267 264 265 259 278 275 274 276 278 287 281 287 298 302 305 311 319 331 333 338 331 321 304 295 301 313 313 310 315 321 325
238 282 301 312 300 301 266 269 283 279 274 284 291 281 270 262 255 270 277 280 278 279 283 287 296 301 306 311 316 330 339 341 336 325 315 305 293 297 290 305 314 327 328 333
289 301 305 312 307 275 272 269 273 265 264 297 303 280 270 254 267 269 274 278 285 285 286 300 301 302 310 316 326 339 337 342 338 333 324 314 307 303 303 306 315 317 319 328
320 329 308 299 285 289 283 275 262 253 258 280 278 272 262 260 263 267 272 277 283 291 298 309 316 317 321 322 326 340 343 346 344 338 338 331 320 316 312 313 316 321 326 326
320 299 292 279 270 263 269 269 254 254 240 256 263 270 273 266 272 272 273 284 292 304 315 328 327 326 329 330 338 343 349 354 354 349 347 345 341 335 325 320 320 323 324 324
272 265 264 255 252 265 264 258 251 252 247 252 263 275 278 285 276 280 290 298 313 332 335 335 333 332 335 340 347 346 351 354 355 353 350 348 348 349 342 336 333 333 331 329